Oklahoma City / Page Muni, OK

6:23 AM CST on November 18, 2017 (GMT -0600)
Oklahoma City / Page Muni

Weather History for KRCE - August, 2013

Change the Weather History Date:

Thursday, August 22, 2013

  Actual Average (KPWA) Record (KPWA)
Temperature  
Mean Temperature 78 °F -  
Max Temperature 89 °F 93 °F 102 °F (1952)
Min Temperature 66 °F 69 °F 57 °F (1953)
Cooling Degree Days 12    
Growing Degree Days 28 (Base 50)    
Moisture  
Dew Point 67 °F    
Average Humidity 69    
Maximum Humidity 94    
Minimum Humidity 43    
Precipitation  
Precipitation 0.00 in - - ()
Sea Level Pressure  
Sea Level Pressure 30.07 in    
Wind  
Wind Speed 8 mph (SSE)    
Max Wind Speed 18 mph    
Max Gust Speed 22 mph    
Averages and records for this station are not official NWS values.
T = Trace of Precipitation, MM = Missing Value Source: NWS Daily Summary

Daily Weather History Graph

Daily Weather History Graph

Search for Another Location

Airport or City:

Trip Planner

Search our weather history database for the weather conditions in past years. The results will help you decide how hot, cold, wet, or windy it might be!

Date:

Astronomy

Aug. 22, 2013 Rise Set
Actual Time 6:56 AM CDT 8:11 PM CDT
Civil Twilight 6:29 AM CDT 8:37 PM CDT
Nautical Twilight 5:57 AM CDT 9:09 PM CDT
Astronomical Twilight 5:24 AM CDT 9:42 PM CDT
Moon 9:03 PM CDT (8/22) 8:40 AM CDT (8/22)
Length of Visible Light 14h 08m
Length of Day
13h 15m
Waning Gibbous, 96% of the Moon is Illuminated
Aug 22
Waning Gibbous
Aug 28
Last Quarter
Sep 5
New
Sep 12
First Quarter
Sep 19
Full

Hourly Weather History & Observations

Time (CDT) Temp. Heat Index Dew Point Humidity Pressure Visibility Wind Dir Wind Speed Gust Speed Precip Events Conditions
12:15 AM 71.6 °F - 64.4 °F 78% 30.08 in - South 6.9 mph - N/A   Unknown
12:35 AM 71.6 °F - 64.4 °F 78% 30.08 in - SSW 4.6 mph - N/A   Clear
12:55 AM 71.6 °F - 64.4 °F 78% 30.08 in - South 6.9 mph - N/A   Clear
1:15 AM 69.8 °F - 64.4 °F 83% 30.08 in - SSW 4.6 mph - N/A   Clear
1:35 AM 68.0 °F - 64.4 °F 88% 30.07 in - South 4.6 mph - N/A   Unknown
1:55 AM 69.8 °F - 64.4 °F 83% 30.08 in - SSW 3.5 mph - N/A   Clear
2:15 AM 69.8 °F - 64.4 °F 83% 30.08 in - SSE 3.5 mph - N/A   Clear
2:35 AM 68.0 °F - 64.4 °F 88% 30.08 in - SE 4.6 mph - N/A   Unknown
2:55 AM 66.2 °F - 64.4 °F 94% 30.09 in - ESE 5.8 mph - N/A   Unknown
3:15 AM 66.2 °F - 64.4 °F 94% 30.08 in - SSE 4.6 mph - N/A   Unknown
3:35 AM 66.2 °F - 64.4 °F 94% 30.08 in - SE 5.8 mph - N/A   Unknown
3:55 AM 68.0 °F - 64.4 °F 88% 30.08 in - SE 6.9 mph - N/A   Unknown
4:15 AM 68.0 °F - 64.4 °F 88% 30.08 in - SSE 5.8 mph - N/A   Unknown
4:35 AM 68.0 °F - 64.4 °F 88% 30.07 in - SSE 5.8 mph - N/A   Unknown
4:55 AM 68.0 °F - 64.4 °F 88% 30.08 in - SSE 5.8 mph - N/A   Unknown
5:15 AM 68.0 °F - 64.4 °F 88% 30.08 in - SSE 6.9 mph - N/A   Unknown
5:35 AM 66.2 °F - 64.4 °F 94% 30.08 in - SSE 6.9 mph - N/A   Unknown
5:55 AM 66.2 °F - 64.4 °F 94% 30.08 in - SSE 6.9 mph - N/A   Unknown
6:15 AM 66.2 °F - 64.4 °F 94% 30.08 in - SSE 5.8 mph - N/A   Unknown
6:35 AM 66.2 °F - 64.4 °F 94% 30.08 in - SSE 8.1 mph - N/A   Unknown
6:55 AM 66.2 °F - 64.4 °F 94% 30.09 in - SSE 6.9 mph - N/A   Unknown
7:15 AM 68.0 °F - 64.4 °F 88% 30.10 in - SSE 4.6 mph - N/A   Unknown
7:35 AM 68.0 °F - 64.4 °F 88% 30.10 in - SSE 4.6 mph - N/A   Unknown
7:55 AM 69.8 °F - 66.2 °F 88% 30.11 in - SSE 4.6 mph - N/A   Unknown
8:15 AM 71.6 °F - 66.2 °F 83% 30.11 in - SSE 6.9 mph - N/A   Clear
8:35 AM 73.4 °F - 66.2 °F 78% 30.12 in - SSE 5.8 mph - N/A   Clear
8:55 AM 75.2 °F - 68.0 °F 78% 30.13 in - South 4.6 mph - N/A   Clear
9:15 AM 77.0 °F - 68.0 °F 74% 30.13 in - SSE 5.8 mph - N/A   Clear
9:35 AM 78.8 °F - 68.0 °F 69% 30.13 in - South 5.8 mph - N/A   Clear
9:55 AM 80.6 °F 83.2 °F 68.0 °F 65% 30.13 in - SSE 8.1 mph - N/A   Clear
10:15 AM 80.6 °F 83.9 °F 69.8 °F 70% 30.13 in - South 8.1 mph - N/A   Clear
10:35 AM 82.4 °F 86.3 °F 69.8 °F 66% 30.12 in - South 8.1 mph - N/A   Clear
10:55 AM 82.4 °F 85.4 °F 68.0 °F 62% 30.12 in - SSW 6.9 mph - N/A   Clear
11:15 AM 84.2 °F 88.4 °F 69.8 °F 62% 30.11 in - SSW 8.1 mph - N/A   Clear
11:35 AM 84.2 °F 89.6 °F 71.6 °F 66% 30.11 in - SSE 9.2 mph - N/A   Clear
11:55 AM 86.0 °F 90.4 °F 69.8 °F 58% 30.11 in - South 9.2 mph - N/A   Clear
12:15 PM 86.0 °F 90.4 °F 69.8 °F 58% 30.10 in - SSE 9.2 mph 16.1 mph N/A   Clear
12:35 PM 86.0 °F 90.4 °F 69.8 °F 58% 30.09 in - South 10.4 mph - N/A   Clear
12:55 PM 86.0 °F 89.4 °F 68.0 °F 55% 30.09 in - SSW 8.1 mph - N/A   Clear
1:15 PM 86.0 °F 89.4 °F 68.0 °F 55% 30.08 in - South 11.5 mph 16.1 mph N/A   Partly Cloudy
1:35 PM 87.8 °F 92.6 °F 69.8 °F 55% 30.07 in - South 11.5 mph 19.6 mph N/A   Partly Cloudy
1:55 PM 87.8 °F 92.6 °F 69.8 °F 55% 30.06 in - South 10.4 mph 16.1 mph N/A   Partly Cloudy
2:15 PM 87.8 °F 92.6 °F 69.8 °F 55% 30.06 in - SSE 9.2 mph - N/A   Scattered Clouds
2:35 PM 89.6 °F 93.4 °F 68.0 °F 49% 30.06 in - SSE 12.7 mph - N/A   Scattered Clouds
2:55 PM 89.6 °F 93.4 °F 68.0 °F 49% 30.05 in - SSW 11.5 mph 17.3 mph N/A   Partly Cloudy
3:15 PM 89.6 °F 93.4 °F 68.0 °F 49% 30.04 in - SSE 12.7 mph - N/A   Partly Cloudy
3:35 PM 89.6 °F 93.4 °F 68.0 °F 49% 30.03 in - South 11.5 mph 17.3 mph N/A   Partly Cloudy
3:55 PM 89.6 °F 92.2 °F 66.2 °F 46% 30.03 in - South 10.4 mph 19.6 mph N/A   Partly Cloudy
4:15 PM 89.6 °F 92.2 °F 66.2 °F 46% 30.02 in - South 13.8 mph - N/A   Clear
4:35 PM 89.6 °F 92.2 °F 66.2 °F 46% 30.02 in - SSW 9.2 mph - N/A   Clear
4:55 PM 89.6 °F 92.2 °F 66.2 °F 46% 30.01 in - SSW 11.5 mph - N/A   Clear
5:15 PM 89.6 °F 92.2 °F 66.2 °F 46% 30.01 in - SW 10.4 mph - N/A   Partly Cloudy
5:35 PM 89.6 °F 91.1 °F 64.4 °F 43% 30.01 in - SW 9.2 mph 16.1 mph N/A   Clear
5:55 PM 87.8 °F 89.4 °F 64.4 °F 46% 30.00 in - SSW 8.1 mph - N/A   Clear
6:15 PM 86.0 °F 88.2 °F 66.2 °F 51% 30.01 in - SE 8.1 mph - N/A   Clear
6:35 PM 89.6 °F 93.4 °F 68.0 °F 49% 30.00 in - SE 6.9 mph - N/A   Clear
6:55 PM 87.8 °F 92.6 °F 69.8 °F 55% 30.00 in - SE 13.8 mph - N/A   Scattered Clouds
7:15 PM 86.0 °F 90.4 °F 69.8 °F 58% 30.00 in - SE 9.2 mph - N/A   Partly Cloudy
7:35 PM 86.0 °F 90.4 °F 69.8 °F 58% 30.00 in - SE 10.4 mph - N/A   Clear
7:55 PM 84.2 °F 87.3 °F 68.0 °F 58% 30.01 in - ESE 10.4 mph - N/A   Partly Cloudy
8:15 PM 82.4 °F 86.3 °F 69.8 °F 66% 30.01 in - ESE 9.2 mph - N/A   Scattered Clouds
8:35 PM 82.4 °F 86.3 °F 69.8 °F 66% 30.02 in - ESE 10.4 mph - N/A   Scattered Clouds
8:55 PM 82.4 °F 86.3 °F 69.8 °F 66% 30.02 in - ESE 9.2 mph - N/A   Clear
9:15 PM 82.4 °F 86.3 °F 69.8 °F 66% 30.03 in - ESE 11.5 mph - N/A   Clear
9:35 PM 82.4 °F 86.3 °F 69.8 °F 66% 30.03 in - ESE 12.7 mph - N/A   Unknown
9:55 PM 82.4 °F 85.4 °F 68.0 °F 62% 30.04 in - ESE 16.1 mph - N/A   Partly Cloudy
10:15 PM 80.6 °F 83.9 °F 69.8 °F 70% 30.04 in - SE 15.0 mph - N/A   Clear
10:35 PM 80.6 °F 83.9 °F 69.8 °F 70% 30.05 in - SE 15.0 mph - N/A   Clear
10:55 PM 80.6 °F 83.2 °F 68.0 °F 65% 30.05 in - ESE 15.0 mph 21.9 mph N/A   Unknown
11:15 PM 80.6 °F 83.2 °F 68.0 °F 65% 30.06 in - SE 13.8 mph 21.9 mph N/A   Unknown
11:35 PM 80.6 °F 83.2 °F 68.0 °F 65% 30.05 in - SE 18.4 mph - N/A   Clear
11:55 PM 80.6 °F 83.2 °F 68.0 °F 65% 30.05 in - SE 15.0 mph - N/A   Clear